This is the latest recevied weather packets stored in our database for station/object KB1RMA-13. If no packets are shown the sender has not sent any weather packets the latest 10 day(s).
| Time | Temp. | Humidity | Pressure | Rain* | Wind** | Luminosity | Snow |
|---|---|---|---|---|---|---|---|
| 1777591786 | 7.78° C | 99% | 1006.9 hPa | 0 mm | - | 9 W/m² | - |
| 1777591482 | 7.78° C | 98% | 1006.8 hPa | 0 mm | - | 12 W/m² | - |
| 1777591178 | 8.33° C | 98% | 1006.8 hPa | 0 mm | - | 15 W/m² | - |
| 1777590872 | 8.33° C | 99% | 1006.9 hPa | 0 mm | - | 18 W/m² | - |
| 1777590570 | 8.33° C | 99% | 1006.7 hPa | 0 mm | - | 20 W/m² | - |
| 1777590266 | 8.33° C | 99% | 1006.8 hPa | 0 mm | - | 24 W/m² | - |
| 1777589963 | 8.33° C | 99% | 1006.8 hPa | 0 mm | - | 32 W/m² | - |
| 1777589660 | 8.33° C | 99% | 1006.6 hPa | 0 mm | - | 35 W/m² | - |
| 1777589356 | 8.33° C | 99% | 1006.6 hPa | 0 mm | - | 38 W/m² | - |
| 1777589054 | 8.33° C | 99% | 1006.5 hPa | 0 mm | - | 36 W/m² | - |
| 1777588750 | 8.33° C | 99% | 1006.6 hPa | 0 mm | - | 42 W/m² | - |
| 1777588446 | 8.33° C | 99% | 1006.7 hPa | 0 mm | - | 74 W/m² | - |
| 1777588141 | 8.33° C | 99% | 1006.6 hPa | 0 mm | - | 36 W/m² | - |
| 1777587837 | 8.33° C | 99% | 1006.5 hPa | 0 mm | - | 28 W/m² | - |
| 1777587537 | 8.33° C | 99% | 1006.5 hPa | 0 mm | - | 54 W/m² | - |
| 1777587233 | 8.33° C | 99% | 1006.2 hPa | 0 mm | - | 61 W/m² | - |
| 1777586928 | 8.33° C | 98% | 1006.2 hPa | 0 mm | - | 47 W/m² | - |
| 1777586625 | 8.33° C | 98% | 1006.2 hPa | 0 mm | - | 40 W/m² | - |
| 1777586320 | 8.89° C | 98% | 1006.4 hPa | 0 mm | - | 40 W/m² | - |
| 1777586019 | 8.89° C | 99% | 1006.4 hPa | 0 mm | - | 68 W/m² | - |
| 1777585718 | 8.89° C | 98% | 1006.5 hPa | 0 mm | - | 92 W/m² | - |
| 1777585418 | 8.89° C | 98% | 1006.5 hPa | 0 mm | - | 127 W/m² | - |
| 1777585113 | 8.33° C | 98% | 1006.3 hPa | 0 mm | - | 102 W/m² | - |
| 1777584810 | 8.33° C | 98% | 1006.3 hPa | 0 mm | - | 77 W/m² | - |
| 1777584508 | 8.33° C | 98% | 1006.4 hPa | 0 mm | - | 38 W/m² | - |
* Rain latest hour (hover to see other rain measurements)
** Current wind speed in m/s (hover to see current wind gust speed)